Location: Arbon
(43.0005°N, 0.7472°E)
Time: 15:31:38
(UTC+00:00)

A-11 Canister half - Pass Details

Date: 05 December 2020
Orbit: 1517 x 1683 km, 47.2° (Epoch: 15 January)

Event Time Altitude Azimuth Distance (km) Brightness Sun altitude
Rises 18:33:46 0° 286° (WNW) 4,933 12.7 -23.3°
Reaches altitude 10° 18:39:41 10° 260° (W) 3,945 12.2 -24.3°
Maximum altitude 18:43:12 12° 239° (WSW) 3,752 11.9 -25.0°
Drops below altitude 10° 18:46:44 10° 218° (SW) 3,929 11.7 -25.6°
Sets 18:52:40 0° 192° (SSW) 4,890 11.9 -26.7°
